Racine, WI

11:07 AM CDT on September 28, 2016 (GMT -0500)
Batten

Weather History for KRAC - February, 2014

Change the Weather History Date:

Friday, February 28, 2014

  Actual Average Record
Temperature  
Mean Temperature 10 °F -  
Max Temperature 28 °F 37 °F 67 °F (1976)
Min Temperature -7 °F 22 °F -7 °F (2014)
Degree Days  
Heating Degree Days 54    
Moisture  
Dew Point 2 °F    
Average Humidity 65    
Maximum Humidity 75    
Minimum Humidity 59    
Precipitation  
Precipitation 0.00 in - - ()
Sea Level Pressure  
Sea Level Pressure 30.15 in    
Wind  
Wind Speed 7 mph (South)    
Max Wind Speed 20 mph    
Max Gust Speed 29 mph    
Visibility 10 miles    
Events Snow    
Averages and records for this station are not official NWS values.
T = Trace of Precipitation, MM = Missing Value Source: NWS Daily Summary

Daily Weather History Graph

Daily Weather History Graph

Search for Another Location

Airport or City:

Trip Planner

Search our weather history database for the weather conditions in past years. The results will help you decide how hot, cold, wet, or windy it might be!

Date:

Astronomy

Feb. 28, 2014 Rise Set
Actual Time 6:28 AM CST 5:39 PM CST
Civil Twilight 6:00 AM CST 6:07 PM CST
Nautical Twilight 5:27 AM CST 6:40 PM CST
Astronomical Twilight 4:54 AM CST 7:13 PM CST
Moon 5:43 AM CST 5:16 PM CST
Length of Visible Light 12h 07m
Length of Day
11h 11m
Waning Crescent, 1% of the Moon is Illuminated
Feb 28
Waning Crescent
Mar 1
New
Mar 8
First Quarter
Mar 16
Full
Mar 23
Last Quarter

Hourly Weather History & Observations

Time (CST) Temp. Windchill Dew Point Humidity Pressure Visibility Wind Dir Wind Speed Gust Speed Precip Events Conditions
12:53 AM -6.0 °F - -15.0 °F 65% 30.26 in 9.0 mi Calm Calm - N/A   Clear
1:53 AM -7.1 °F - -15.0 °F 68% 30.25 in 10.0 mi Calm Calm - N/A   Clear
2:53 AM -6.0 °F -14.7 °F -15.0 °F 65% 30.24 in 10.0 mi NW 3.5 mph - N/A   Clear
3:53 AM -7.1 °F -15.9 °F -15.0 °F 68% 30.24 in 10.0 mi West 3.5 mph - N/A   Clear
4:53 AM -6.0 °F - -15.0 °F 65% 30.23 in 10.0 mi Calm Calm - N/A   Clear
5:53 AM -5.1 °F - -14.1 °F 65% 30.24 in 10.0 mi Calm Calm - N/A   Clear
6:53 AM -4.0 °F -14.6 °F -11.9 °F 69% 30.23 in 10.0 mi SSW 4.6 mph - N/A   Scattered Clouds
7:02 AM -0.9 °F -12.7 °F -11.0 °F 62% 30.17 in 10.0 mi SSW 5.8 mph - N/A   Mostly Cloudy
7:38 AM 3.9 °F -8.2 °F -7.1 °F 60% 30.19 in 10.0 mi SSW 6.9 mph - N/A   Partly Cloudy
7:53 AM 7.0 °F -3.3 °F -4.0 °F 61% 30.23 in 10.0 mi South 5.8 mph - N/A   Partly Cloudy
8:53 AM 12.9 °F -3.9 °F 3.0 °F 65% 30.22 in 10.0 mi SSE 17.3 mph 24.2 mph N/A   Scattered Clouds
9:14 AM 12.9 °F -3.4 °F 3.0 °F 65% 30.17 in 10.0 mi South 16.1 mph 21.9 mph N/A   Mostly Cloudy
9:44 AM 12.9 °F -4.4 °F 3.0 °F 65% 30.17 in 10.0 mi South 18.4 mph 26.5 mph N/A   Overcast
9:53 AM 12.9 °F -4.9 °F 1.9 °F 62% 30.21 in 10.0 mi South 19.6 mph 28.8 mph N/A   Overcast
10:53 AM 14.0 °F -3.0 °F 3.9 °F 64% 30.21 in 10.0 mi SSE 18.4 mph 25.3 mph N/A   Overcast
11:53 AM 15.1 °F -2.0 °F 5.0 °F 64% 30.19 in 10.0 mi South 19.6 mph 25.3 mph N/A   Overcast
12:53 PM 17.1 °F 1.0 °F 6.1 °F 62% 30.14 in 10.0 mi South 18.4 mph 26.5 mph N/A   Overcast
1:53 PM 19.0 °F 4.5 °F 7.0 °F 59% 30.10 in 10.0 mi SSE 16.1 mph - N/A   Overcast
2:53 PM 19.9 °F 6.2 °F 8.1 °F 60% 30.07 in 10.0 mi SSE 15.0 mph 23.0 mph N/A   Overcast
3:53 PM 21.9 °F 9.2 °F 10.9 °F 63% 30.06 in 10.0 mi South 13.8 mph 23.0 mph N/A   Overcast
4:53 PM 23.0 °F 9.2 °F 12.9 °F 65% 30.04 in 10.0 mi SSE 17.3 mph 23.0 mph N/A   Overcast
5:53 PM 25.0 °F 13.6 °F 15.1 °F 66% 30.03 in 10.0 mi SSE 12.7 mph - N/A   Overcast
6:53 PM 26.1 °F 20.5 °F 16.0 °F 66% 30.06 in 10.0 mi South 4.6 mph - N/A   Overcast
7:53 PM 26.1 °F - 17.1 °F 69% 30.06 in 10.0 mi Calm Calm - N/A   Overcast
8:53 PM 27.0 °F 18.0 °F 19.0 °F 72% 30.04 in 10.0 mi SSE 9.2 mph - N/A   Overcast
9:53 PM 28.0 °F 21.7 °F 19.0 °F 69% 30.03 in 10.0 mi South 5.8 mph - N/A   Overcast
10:53 PM 27.0 °F 21.6 °F 18.0 °F 69% 30.05 in 10.0 mi NW 4.6 mph - N/A   Overcast
11:53 PM 25.0 °F 20.7 °F 18.0 °F 75% 30.06 in 2.5 mi WNW 3.5 mph - 0.00 in Snow Light Snow